Regional Weather Roundup
Issued by NWS

Home | Current Version | Previous Version | Text Only | Print | Product List | Glossary On
Versions: 1 2 3 4 5 6 7 8 9 10 11 12 13 14 15 16 17 18 19 20 21 22 23 24 25 26 27 28 29 30 31 32 33 34 35 36 37 38 39 40 41 42 43 44 45 46 47 48 49 50
000
ASUS44 KBMX 290310
RWRAL

ALABAMA REGIONAL WEATHER ROUNDUP
NATIONAL WEATHER SERVICE BIRMINGHAM AL
1000 PM CDT SUN MAY 28 2017

NOTE: "FAIR" INDICATES FEW OR NO CLOUDS BELOW 12,000 FEET
WITH NO SIGNIFICANT WEATHER AND/OR OBSTRUCTIONS TO VISIBILITY.

THE REMARK "TC" DENOTES TEMPERATURE IN DEGREES CELSIUS.

ALZ001>011-014-016>018-020-290400-
NORTH ALABAMA

CITY           SKY/WX    TMP DP  RH WIND       PRES   REMARKS
MUSCLE SHOALS  PTCLDY    72  64  76 W7        29.95S
HUNTSVILLE     PTCLDY    72  67  84 CALM      29.94R
DECATUR        CLEAR     74  65  73 NW7       29.94R
HALEYVILLE     FAIR      69  65  86 CALM      29.99R
GADSDEN        CLEAR     69  67  93 SW3       29.95R
$$

ALZ012-013-022-023-030>036-040>044-290400-
WEST CENTRAL ALABAMA

CITY           SKY/WX    TMP DP  RH WIND       PRES   REMARKS
TUSCALOOSA     CLEAR     72  66  81 SW5       29.99R
$$

ALZ015-024>027-033>036-040>044-290400-
CENTRAL ALABAMA

CITY           SKY/WX    TMP DP  RH WIND       PRES   REMARKS
BIRMINGHAM     MOCLDY    76  66  71 W7        30.00R
MONTGOMERY     CLEAR     76  66  71 SW6       29.99R
SHELBY CO ARPT CLEAR     74  68  81 CALM      30.00R
MAXWELL AFB    CLEAR     76  67  74 SW3       29.99R
GREENVILLE     FAIR      73  68  84 CALM      30.00R
$$

ALZ019-021-028-029-037-038-045>048-290400-
EAST CENTRAL ALABAMA

CITY           SKY/WX    TMP DP  RH WIND       PRES   REMARKS
ANNISTON       PTCLDY    70  67  90 W3        29.96R
ALEXANDER CITY CLEAR     70  67  89 CALM      29.99R
AUBURN         PTCLDY    76  67  73 W7        30.00R
$$

ALZ051>064-290400-
SOUTHWEST ALABAMA

CITY           SKY/WX    TMP DP  RH WIND       PRES   REMARKS
MOBILE         CLOUDY    79  73  82 W5        29.99R
BROOKLEY FIELD MOCLDY    80  75  84 SW6       29.98R
EVERGREEN      PTCLDY    74  70  87 CALM      30.01R
$$

ALZ049-050-065>069-290400-
SOUTHEAST ALABAMA

CITY           SKY/WX    TMP DP  RH WIND       PRES   REMARKS
DOTHAN         CLOUDY    77  74  90 NW7       30.03R
OZARK          CLOUDY    76  73  91 N3        29.99R
TROY           PTCLDY    73  71  93 CALM      30.00R
EUFAULA        FAIR      77  70  79 SW5       29.97R
$$



USA.gov is the U.S. government's official web portal to all federal, state and local government web resources and services.